Regional Weather Roundup
Issued by NWS

Home | Current Version | Previous Version | Text Only | Print | Product List | Glossary Off
Versions: 1 2 3 4 5 6 7 8 9 10 11 12 13 14 15 16 17 18 19 20 21 22 23 24 25 26 27 28 29 30 31 32 33 34 35 36 37 38 39 40 41 42 43 44 45 46 47 48 49 50

000
ASUS45 KSLC 220610
RWRUT

UTAH REGIONAL WEATHER ROUNDUP
NATIONAL WEATHER SERVICE SALT LAKE CITY UT
1200 AM MDT SAT JUL 22 2017

UTZ001>011-023>025-220700-

NORTHERN UTAH

CITY           SKY/WX    TMP DP  RH WIND       PRES   REMARKS
BRIGHAM CITY   CLEAR     84  17   8 SW6       30.04F
HILL AFB       CLEAR     78  40  26 E14G21    30.07R
LOGAN          CLEAR     71  40  32 SW5       30.09R
OGDEN          CLEAR     78  44  29 S5        30.03S
SALT LAKE CITY CLEAR     81  52  36 VRB5      30.02R
TOOELE VALLEY  CLEAR     68  46  45 S6        30.04S
WENDOVER       CLEAR     84  34  16 N14G23    30.04R
HEBER CITY     MOCLDY    64  54  68 S3        30.17R
WEST JORDAN    CLEAR     77  54  45 W6        30.07R

$$

UTZ011>015-024>027-220700-

CENTRAL/NORTHEAST UTAH

CITY           SKY/WX    TMP DP  RH WIND       PRES   REMARKS
PROVO AIRPORT  MOCLDY    80  53  39 S17       30.06S
MOAB/CANYONLAN CLOUDY    69  64  84 S3        30.15F
DELTA          CLEAR     77  46  33 SW10      30.06R
PRICE          CLOUDY    65  57  75 E9        30.27S
ROOSEVELT      CLOUDY    64  54  68 SW5       30.22S
VERNAL         CLOUDY    64  53  67 CALM      30.21S

$$

UTZ013>016-019>022-027-220700-

SOUTHERN UTAH

CITY           SKY/WX    TMP DP  RH WIND       PRES   REMARKS
BRYCE CANYON   CLOUDY    60  53  77 NE5       30.38R
CEDAR CITY     MOCLDY    72  53  51 E7        30.17R
MILFORD        CLEAR     76  52  43 SW14      30.10R
ST GEORGE      MOCLDY    90  53  28 SE9       29.94F
HANKSVILLE     CLOUDY    72  57  60 N7        30.15F
BLANDING       CLOUDY    64  57  77 CALM      30.32S

$$

REGIONAL REPORTS     COLORADO/ARIZONA

CITY           SKY/WX    TMP DP  RH WIND       PRES   REMARKS
CRAIG, CO      CLOUDY    61  53  75 E3        30.26S
GRAND JUNCTION LGT RAIN  66  64  93 NE9       30.17F
RIFLE, CO      CLOUDY    64  62  93 SW3       30.25F
MONTROSE, CO   CLOUDY    65  58  78 S8        30.28F
CORTEZ, CO     PTCLDY    67  57  70 CALM      30.22R
COLORADO CITY  MOCLDY    75  59  57 SE5       30.16R
PAGE, AZ       MOCLDY    84  54  35 E22G28    30.10R
GRAND CANYON   MOCLDY    62  56  80 CALM      30.28R
KINGMAN, AZ    PTCLDY    84  54  35 S10       30.01S
FLAGSTAFF, AZ  CLOUDY    59  57  93 W3        30.30S

$$

REGIONAL REPORTS    NEVADA/IDAHO/WYOMING

CITY           SKY/WX    TMP DP  RH WIND       PRES   REMARKS
LAS VEGAS, NV  CLEAR     95  43  16 S7        29.86R HX  91
ELY, NY        PTCLDY    67  39  35 S7        30.17R
ELKO, NV       CLEAR     77  30  17 NE13      30.12R
POCATELLO, ID  CLEAR     68  33  27 SW7       30.08S
BURLEY, ID     CLEAR     65  44  46 SW9       30.06S
FORT BRIDGER,    N/A     69  33  26 NE5       30.31R
EVANSTON, WY   CLOUDY    66  39  37 N6        30.29R
ROCK SPRINGS,  CLOUDY    65  49  56 SE16      30.27R
KEMMERER, WY     N/A     61  32  33 NW13      30.30S

$$



USA.gov is the U.S. government's official web portal to all federal, state and local government web resources and services.